Stevens Point, WI

10:27 AM CST on December 12, 2019 (GMT -0600)
Stevens Point Municipal

Weather History for KSTE - October, 2019

Change the Weather History Date:

Saturday, October 5, 2019

  Actual Average Record
Temperature  
Mean Temperature 46 °F -  
Max Temperature 52 °F 62 °F 84 °F (2005)
Min Temperature 40 °F 41 °F 21 °F (2004)
Degree Days  
Heating Degree Days 19    
Moisture  
Dew Point 46 °F    
Average Humidity 96    
Maximum Humidity 100    
Minimum Humidity 81    
Precipitation  
Precipitation 0.45 in - - ()
Sea Level Pressure  
Sea Level Pressure 30.02 in    
Wind  
Wind Speed 7 mph (SSE)    
Max Wind Speed 16 mph    
Max Gust Speed 23 mph    
Visibility 8 miles    
Events Rain    
Averages and records for this station are not official NWS values.
T = Trace of Precipitation, MM = Missing Value Source: NWS Daily Summary

Daily Weather History Graph

Daily Weather History Graph

Search for Another Location

Airport or City:

Astronomy

Oct. 05, 2019 Rise Set
Actual Time 7:00 AM CDT 6:31 PM CDT
Civil Twilight 6:31 AM CDT 7:00 PM CDT
Nautical Twilight 5:57 AM CDT 7:34 PM CDT
Astronomical Twilight 5:23 AM CDT 8:08 PM CDT
Moon 2:39 PM CDT (10/5) 11:41 PM CDT (10/5)
Length of Visible Light 12h 29m
Length of Day
11h 31m
Waxing Crescent, 50% of the Moon is Illuminated
Oct 5
Waxing Crescent
Oct 13
Full
Oct 21
Last Quarter
Oct 27
New
Nov 4
First Quarter

Hourly Weather History & Observations

Time (CDT) Temp. Windchill Dew Point Humidity Pressure Visibility Wind Dir Wind Speed Gust Speed Precip Events Conditions
12:15 AM 44.2 °F 41.0 °F 40.3 °F 86% 30.32 in 10.0 mi East 5.8 mph - N/A   Overcast
12:35 AM 44.1 °F 40.8 °F 39.6 °F 84% 30.31 in 10.0 mi ESE 5.8 mph - N/A   Overcast
12:55 AM 43.9 °F 42.3 °F 38.5 °F 81% 30.30 in 10.0 mi ESE 3.5 mph - N/A   Mostly Cloudy
1:15 AM 42.4 °F 39.6 °F 37.8 °F 83% 30.30 in 10.0 mi East 4.6 mph - N/A   Scattered Clouds
1:35 AM 41.4 °F 39.4 °F 38.5 °F 89% 30.30 in 10.0 mi ESE 3.5 mph - N/A   Clear
1:55 AM 41.4 °F 39.4 °F 38.3 °F 89% 30.29 in 10.0 mi East 3.5 mph - N/A   Clear
2:15 AM 40.6 °F 37.5 °F 39.4 °F 95% 30.28 in 10.0 mi ESE 4.6 mph - N/A   Clear
2:35 AM 40.3 °F 36.3 °F 39.6 °F 97% 30.27 in 10.0 mi East 5.8 mph - N/A   Clear
2:55 AM 40.1 °F 36.9 °F 39.7 °F 99% 30.26 in 10.0 mi East 4.6 mph - N/A   Scattered Clouds
3:15 AM 41.0 °F - 40.8 °F 99% 30.26 in 10.0 mi Calm Calm - N/A   Overcast
3:35 AM 41.7 °F - 41.7 °F 100% 30.25 in 10.0 mi Calm Calm - N/A   Overcast
3:55 AM 42.1 °F 38.4 °F 41.9 °F 99% 30.23 in 10.0 mi East 5.8 mph - N/A   Overcast
4:15 AM 42.8 °F 40.1 °F 42.4 °F 99% 30.22 in 10.0 mi East 4.6 mph - N/A   Overcast
4:35 AM 43.7 °F 39.7 °F 42.8 °F 97% 30.21 in 10.0 mi ESE 6.9 mph - N/A   Overcast
4:55 AM 44.1 °F 41.5 °F 42.8 °F 95% 30.21 in 10.0 mi ESE 4.6 mph - N/A   Overcast
5:15 AM 44.6 °F 43.1 °F 42.6 °F 93% 30.20 in 10.0 mi ESE 3.5 mph - N/A   Overcast
5:35 AM 44.8 °F 42.4 °F 42.4 °F 91% 30.20 in 10.0 mi SE 4.6 mph - N/A   Overcast
5:55 AM 45.0 °F 42.6 °F 42.4 °F 91% 30.19 in 10.0 mi SE 4.6 mph - N/A   Overcast
6:15 AM 45.0 °F 42.6 °F 42.6 °F 91% 30.19 in 10.0 mi SE 4.6 mph - N/A   Overcast
6:35 AM 45.1 °F 42.0 °F 43.0 °F 92% 30.18 in 10.0 mi ESE 5.8 mph - N/A   Overcast
6:55 AM 45.5 °F 41.8 °F 43.3 °F 92% 30.17 in 10.0 mi ESE 6.9 mph - N/A   Overcast
7:15 AM 45.9 °F 41.7 °F 43.7 °F 92% 30.16 in 10.0 mi SE 8.1 mph - N/A   Overcast
7:35 AM 45.9 °F 41.2 °F 44.2 °F 94% 30.14 in 10.0 mi ESE 9.2 mph - N/A   Light Drizzle
7:55 AM 46.4 °F 42.4 °F 44.6 °F 93% 30.13 in 10.0 mi SE 8.1 mph - N/A   Overcast
8:15 AM 46.8 °F - 44.6 °F 92% 30.12 in 10.0 mi SE 11.5 mph 16.1 mph N/A   Overcast
8:35 AM 47.5 °F - 44.6 °F 90% 30.12 in 10.0 mi SE 9.2 mph - N/A   Overcast
8:55 AM 47.8 °F - 44.8 °F 89% 30.10 in 10.0 mi SE 11.5 mph 17.3 mph N/A   Overcast
9:15 AM 48.2 °F - 44.8 °F 88% 30.09 in 10.0 mi SE 11.5 mph 18.4 mph N/A   Overcast
9:35 AM 48.6 °F - 45.0 °F 87% 30.07 in 10.0 mi SE 15.0 mph - N/A   Overcast
9:55 AM 48.2 °F - 45.5 °F 90% 30.06 in 10.0 mi SE 10.4 mph - N/A Rain Light Rain
10:15 AM 48.2 °F - 45.9 °F 92% 30.07 in 10.0 mi SE 8.1 mph 16.1 mph N/A   Overcast
10:35 AM 48.2 °F - 45.7 °F 91% 30.10 in 10.0 mi South 5.8 mph - N/A   Overcast
10:55 AM 47.8 °F - 46.8 °F 96% 30.10 in - SSE 4.6 mph - N/A   Unknown
11:15 AM 47.5 °F - 47.5 °F 100% 30.09 in 1.8 mi SE 3.5 mph - 0.04 in Rain Rain
11:35 AM 47.3 °F - 47.3 °F 100% 30.06 in 7.0 mi ESE 6.9 mph - 0.07 in Rain Light Rain
11:55 AM 47.3 °F - 47.3 °F 100% 30.06 in 5.0 mi ESE 4.6 mph - 0.11 in Rain Rain
12:15 PM 47.5 °F - 47.5 °F 100% 30.06 in 7.0 mi ESE 3.5 mph - 0.02 in Rain Rain
12:35 PM 47.5 °F - 47.5 °F 100% 30.04 in 4.0 mi SE 4.6 mph - 0.07 in Rain Rain
12:55 PM 47.5 °F - 47.5 °F 100% 30.02 in 4.0 mi SE 8.1 mph - 0.13 in Rain Rain
1:15 PM 47.5 °F - 47.5 °F 100% 29.98 in 5.0 mi SE 12.7 mph - 0.03 in Rain Light Rain
1:35 PM 47.5 °F - 47.5 °F 100% 29.95 in 7.0 mi SE 11.5 mph 18.4 mph 0.06 in Rain Rain
1:55 PM 47.7 °F - 47.7 °F 100% 29.92 in 5.0 mi SE 13.8 mph 21.9 mph 0.11 in Rain Rain
2:15 PM 47.8 °F - 47.8 °F 100% 29.90 in 10.0 mi SE 15.0 mph 21.9 mph 0.01 in Rain Light Rain
2:35 PM 48.4 °F - 48.4 °F 100% 29.90 in 10.0 mi SSE 15.0 mph 20.7 mph 0.01 in   Light Drizzle
2:55 PM 48.6 °F - 48.6 °F 100% 29.87 in 10.0 mi SE 9.2 mph 21.9 mph 0.01 in   Overcast
3:15 PM 48.9 °F - 48.9 °F 100% 29.87 in 10.0 mi SE 11.5 mph 16.1 mph N/A   Overcast
3:35 PM 49.1 °F - 49.1 °F 100% 29.85 in 10.0 mi SSE 12.7 mph 23.0 mph N/A Rain Light Rain
4:15 PM 49.1 °F - 49.1 °F 100% 29.83 in 10.0 mi SSE 9.2 mph - N/A Rain Light Rain
4:35 PM 49.1 °F - 49.1 °F 100% 29.83 in 10.0 mi SSE 8.1 mph 19.6 mph N/A   Overcast
4:55 PM 49.3 °F - 49.3 °F 100% 29.83 in 4.0 mi South 9.2 mph - 0.01 in Rain Heavy Rain
5:15 PM 49.1 °F - 49.1 °F 100% 29.83 in 2.5 mi SSE 9.2 mph 16.1 mph 0.02 in Rain Heavy Rain
5:35 PM 49.1 °F - 49.1 °F 100% 29.82 in 2.5 mi South 9.2 mph - 0.04 in Rain Light Rain
5:55 PM 49.1 °F - 49.1 °F 100% 29.81 in 4.0 mi South 9.2 mph - 0.04 in Rain Rain
6:15 PM 49.1 °F - 49.1 °F 100% 29.81 in 3.0 mi South 9.2 mph - 0.01 in   Drizzle
6:35 PM 49.3 °F - 49.3 °F 100% 29.81 in 4.0 mi South 9.2 mph 16.1 mph 0.02 in   Drizzle
6:55 PM 49.5 °F - 49.5 °F 100% 29.80 in 5.0 mi South 11.5 mph - 0.02 in   Drizzle
7:15 PM 49.6 °F - 49.6 °F 100% 29.80 in 4.0 mi South 10.4 mph - N/A   Drizzle
7:35 PM 50.0 °F - 50.0 °F 100% 29.80 in 4.0 mi South 9.2 mph 16.1 mph 0.01 in   Heavy Drizzle
7:55 PM 50.0 °F - 50.0 °F 100% 29.79 in 4.0 mi SSW 11.5 mph - 0.02 in   Drizzle
8:15 PM 50.5 °F - 50.5 °F 100% 29.80 in 4.0 mi SSW 10.4 mph 18.4 mph N/A   Light Drizzle
8:35 PM 50.9 °F - 50.9 °F 100% 29.78 in 4.0 mi SSW 13.8 mph 18.4 mph N/A   Light Drizzle
8:55 PM 51.3 °F - 51.3 °F 100% 29.78 in 10.0 mi SSW 13.8 mph - N/A   Overcast
9:15 PM 51.6 °F - 51.6 °F 100% 29.78 in 10.0 mi SSW 11.5 mph 19.6 mph N/A   Overcast
9:35 PM 51.8 °F - 51.8 °F 100% 29.78 in 10.0 mi SSW 11.5 mph - N/A   Overcast
9:55 PM 52.2 °F - 52.2 °F 100% 29.78 in 10.0 mi SW 13.8 mph 19.6 mph N/A   Overcast
10:15 PM 52.7 °F - 52.7 °F 100% 29.78 in 10.0 mi WSW 12.7 mph 23.0 mph N/A   Overcast
10:35 PM 52.3 °F - 52.3 °F 100% 29.79 in 10.0 mi SW 10.4 mph 18.4 mph N/A   Overcast
10:55 PM 52.2 °F - 51.4 °F 97% 29.79 in 10.0 mi WSW 16.1 mph 21.9 mph N/A   Overcast
11:15 PM 52.0 °F - 50.0 °F 93% 29.80 in 10.0 mi WSW 12.7 mph 21.9 mph N/A   Overcast
11:35 PM 51.3 °F - 49.3 °F 93% 29.79 in 10.0 mi WSW 12.7 mph 18.4 mph N/A   Overcast
11:55 PM 50.9 °F - 48.2 °F 90% 29.79 in 10.0 mi WSW 13.8 mph 23.0 mph N/A   Scattered Clouds